Tracking 19242 objects as of 15-Aug-2018
HD Live streaming from Space Station
objects crossing your sky now

NOAA 16 DEB

Track NOAA 16 DEB now!
10-day predictions


NORAD ID: 41247
Int'l Code: 2000-055EX
Perigee: 763.9 km
Apogee: 873.3 km
Inclination: 98.9 °
Period: 101.1 minutes
Semi major axis: 7189 km
RCS: Unknown
Launch date: September 21, 2000
Source: United States (US)
Launch site: AIR FORCE WESTERN TEST RANGE (AFWTR)

Note: This is SATELLITE DEBRIS
aabbcc
Your satellite tracking list
Your tracking list is empty




NASA's NSSDC Master Catalog

Two Line Element Set (TLE):
1 41247U 00055EX  18225.02381091 +.00001775 +00000-0 +76752-3 0  9990
2 41247 098.9093 316.9883 0076068 186.0035 174.0238 14.24128390135756
Source of the keplerian elements: AFSPC